,,PressureMeas_1m,,PRMeasQMR101_1,,RHStat155_1m_1,,SRMeasQMS101R_1m,,TAStat155_1m_1,,GenWind_1,,GenWind_1,
2017-09-07, 00:00:06,VALID,918.374,VALID,0.0,VALID,96.317,VALID,-0.017,VALID,19.126,VALID,87.0,VALID,1.091,
2017-09-07, 00:01:06,VALID,918.356,VALID,0.0,VALID,96.296,VALID,0.003,VALID,19.123,VALID,78.0,VALID,0.993,
2017-09-07, 00:02:06,VALID,918.34,VALID,0.0,VALID,96.31,VALID,-0.014,VALID,19.116,VALID,83.0,VALID,1.009,
2017-09-07, 00:03:06,VALID,918.318,VALID,0.0,VALID,96.37,VALID,-0.023,VALID,19.094,VALID,86.0,VALID,1.07,
2017-09-07, 00:04:06,VALID,918.308,VALID,0.0,VALID,96.45,VALID,-0.015,VALID,19.075,VALID,88.0,VALID,1.085,
2017-09-07, 00:05:06,VALID,918.279,VALID,0.0,VALID,96.554,VALID,-0.011,VALID,19.055,VALID,95.0,VALID,1.144,
2017-09-07, 00:06:06,VALID,918.257,VALID,0.0,VALID,96.647,VALID,-0.012,VALID,19.044,VALID,102.0,VALID,1.357,
2017-09-07, 00:07:06,VALID,918.227,VALID,0.0,VALID,96.786,VALID,0.007,VALID,19.044,VALID,105.0,VALID,1.224,
2017-09-07, 00:08:06,VALID,918.187,VALID,0.0,VALID,96.889,VALID,-0.015,VALID,19.035,VALID,121.0,VALID,0.947,
2017-09-07, 00:09:06,VALID,918.144,VALID,0.0,VALID,96.975,VALID,-0.018,VALID,19.02,VALID,132.0,VALID,0.804,
2017-09-07, 00:10:06,VALID,918.102,VALID,0.0,VALID,97.057,VALID,-0.012,VALID,18.998,VALID,133.0,VALID,0.851,
2017-09-07, 00:11:06,VALID,918.066,VALID,0.0,VALID,97.203,VALID,-0.004,VALID,18.992,VALID,129.0,VALID,0.693,
2017-09-07, 00:12:06,VALID,918.03,VALID,0.0,VALID,97.344,VALID,0.019,VALID,18.977,VALID,125.0,VALID,0.691,
2017-09-07, 00:13:06,VALID,918.005,VALID,0.0,VALID,97.419,VALID,0.024,VALID,18.953,VALID,114.0,VALID,0.649,
2017-09-07, 00:14:06,VALID,917.986,VALID,0.0,VALID,97.49,VALID,-0.003,VALID,18.935,VALID,107.0,VALID,0.716,
2017-09-07, 00:15:06,VALID,917.965,VALID,0.0,VALID,97.534,VALID,0.003,VALID,18.911,VALID,98.0,VALID,0.441,
2017-09-07, 00:16:06,VALID,917.955,VALID,0.0,VALID,97.551,VALID,-0.0,VALID,18.88,VALID,95.0,VALID,0.453,
2017-09-07, 00:17:06,VALID,917.944,VALID,0.0,VALID,97.651,VALID,-0.012,VALID,18.878,VALID,93.0,VALID,0.777,
2017-09-07, 00:18:06,VALID,917.926,VALID,0.0,VALID,97.762,VALID,-0.009,VALID,18.888,VALID,93.0,VALID,0.894,
2017-09-07, 00:19:06,VALID,917.909,VALID,0.0,VALID,97.761,VALID,0.012,VALID,18.868,VALID,92.0,VALID,1.068,
2017-09-07, 00:20:06,VALID,917.887,VALID,0.0,VALID,97.722,VALID,0.003,VALID,18.863,VALID,95.0,VALID,1.086,
2017-09-07, 00:21:06,VALID,917.877,VALID,0.0,VALID,97.677,VALID,-0.01,VALID,18.865,VALID,97.0,VALID,0.85,
2017-09-07, 00:22:06,VALID,917.857,VALID,0.0,VALID,97.576,VALID,0.012,VALID,18.859,VALID,96.0,VALID,0.93,
2017-09-07, 00:23:06,VALID,917.828,VALID,0.0,VALID,97.549,VALID,0.014,VALID,18.853,VALID,98.0,VALID,0.887,
2017-09-07, 00:24:06,VALID,917.797,VALID,0.0,VALID,97.484,VALID,0.009,VALID,18.844,VALID,102.0,VALID,0.83,
2017-09-07, 00:25:06,VALID,917.777,VALID,0.0,VALID,97.448,VALID,0.004,VALID,18.834,VALID,106.0,VALID,0.738,
2017-09-07, 00:26:06,VALID,917.755,VALID,0.0,VALID,97.414,VALID,-0.0,VALID,18.817,VALID,116.0,VALID,0.667,
2017-09-07, 00:27:06,VALID,917.749,VALID,0.0,VALID,97.418,VALID,0.008,VALID,18.807,VALID,132.0,VALID,0.32,
2017-09-07, 00:28:06,VALID,917.754,VALID,0.0,VALID,97.401,VALID,0.003,VALID,18.793,VALID,129.0,VALID,0.304,
2017-09-07, 00:29:06,VALID,917.744,VALID,0.0,VALID,97.427,VALID,-0.001,VALID,18.786,VALID,118.0,VALID,0.193,
2017-09-07, 00:30:06,VALID,917.73,VALID,0.0,VALID,97.442,VALID,0.002,VALID,18.765,VALID,118.0,VALID,0.234,
2017-09-07, 00:31:06,VALID,917.724,VALID,0.0,VALID,97.545,VALID,0.01,VALID,18.785,VALID,117.0,VALID,0.426,
2017-09-07, 00:32:06,VALID,917.706,VALID,0.0,VALID,97.592,VALID,0.021,VALID,18.792,VALID,109.0,VALID,0.262,
2017-09-07, 00:33:06,VALID,917.694,VALID,0.0,VALID,97.602,VALID,0.025,VALID,18.772,VALID,109.0,VALID,0.024,
2017-09-07, 00:34:06,VALID,917.679,VALID,0.0,VALID,97.581,VALID,0.001,VALID,18.757,VALID,109.0,VALID,0.0,
2017-09-07, 00:35:06,VALID,917.648,VALID,0.0,VALID,97.631,VALID,0.023,VALID,18.758,VALID,109.0,VALID,0.0,
2017-09-07, 00:36:06,VALID,917.627,VALID,0.0,VALID,97.68,VALID,0.028,VALID,18.752,VALID,109.0,VALID,0.0,
2017-09-07, 00:37:06,VALID,917.612,VALID,0.0,VALID,97.698,VALID,0.001,VALID,18.742,VALID,109.0,VALID,0.0,
2017-09-07, 00:38:06,VALID,917.602,VALID,0.0,VALID,97.754,VALID,0.013,VALID,18.74,VALID,113.0,VALID,0.08,
2017-09-07, 00:39:06,VALID,917.576,VALID,0.0,VALID,97.725,VALID,0.021,VALID,18.722,VALID,117.0,VALID,0.106,
2017-09-07, 00:40:06,VALID,917.562,VALID,0.0,VALID,97.844,VALID,0.007,VALID,18.725,VALID,114.0,VALID,0.0,
2017-09-07, 00:41:06,VALID,917.526,VALID,0.0,VALID,97.872,VALID,-0.001,VALID,18.715,VALID,114.0,VALID,0.006,
2017-09-07, 00:42:06,VALID,917.515,VALID,0.0,VALID,97.864,VALID,0.007,VALID,18.675,VALID,114.0,VALID,0.052,
2017-09-07, 00:43:06,VALID,917.52,VALID,0.0,VALID,97.851,VALID,-0.002,VALID,18.637,VALID,114.0,VALID,0.01,
2017-09-07, 00:44:06,VALID,917.517,VALID,0.0,VALID,97.911,VALID,-0.009,VALID,18.64,VALID,114.0,VALID,0.021,
2017-09-07, 00:45:06,VALID,917.503,VALID,0.0,VALID,98.021,VALID,0.005,VALID,18.661,VALID,114.0,VALID,0.259,
2017-09-07, 00:46:06,VALID,917.476,VALID,0.0,VALID,98.062,VALID,-0.002,VALID,18.651,VALID,114.0,VALID,0.666,
2017-09-07, 00:47:06,VALID,917.472,VALID,0.0,VALID,98.056,VALID,0.004,VALID,18.63,VALID,112.0,VALID,1.002,
2017-09-07, 00:48:06,VALID,917.459,VALID,0.0,VALID,98.01,VALID,0.003,VALID,18.571,VALID,108.0,VALID,0.973,
2017-09-07, 00:49:06,VALID,917.45,VALID,0.0,VALID,98.008,VALID,0.012,VALID,18.531,VALID,114.0,VALID,0.432,
2017-09-07, 00:50:06,VALID,917.445,VALID,0.0,VALID,97.986,VALID,0.016,VALID,18.494,VALID,141.0,VALID,0.214,
2017-09-07, 00:51:06,VALID,917.425,VALID,0.0,VALID,98.03,VALID,0.02,VALID,18.491,VALID,136.0,VALID,0.5,
2017-09-07, 00:52:06,VALID,917.373,VALID,0.0,VALID,98.087,VALID,0.012,VALID,18.501,VALID,115.0,VALID,0.911,
2017-09-07, 00:53:06,VALID,917.329,VALID,0.0,VALID,98.144,VALID,0.021,VALID,18.529,VALID,100.0,VALID,1.427,
2017-09-07, 00:54:06,VALID,917.286,VALID,0.0,VALID,98.1,VALID,0.01,VALID,18.496,VALID,89.0,VALID,1.539,
2017-09-07, 00:55:06,VALID,917.267,VALID,0.0,VALID,98.015,VALID,0.007,VALID,18.465,VALID,90.0,VALID,1.629,
2017-09-07, 00:56:06,VALID,917.234,VALID,0.0,VALID,98.143,VALID,-0.0,VALID,18.488,VALID,95.0,VALID,1.5,
2017-09-07, 00:57:06,VALID,917.218,VALID,0.0,VALID,98.182,VALID,0.031,VALID,18.494,VALID,100.0,VALID,1.471,
2017-09-07, 00:58:06,VALID,917.189,VALID,0.0,VALID,98.216,VALID,0.031,VALID,18.484,VALID,102.0,VALID,1.555,
2017-09-07, 00:59:06,VALID,917.175,VALID,0.0,VALID,98.279,VALID,0.019,VALID,18.496,VALID,107.0,VALID,1.706,
2017-09-07, 01:00:06,VALID,917.174,VALID,0.0,VALID,98.348,VALID,0.031,VALID,18.491,VALID,110.0,VALID,1.521,
2017-09-07, 01:01:06,VALID,917.159,VALID,0.0,VALID,98.36,VALID,0.021,VALID,18.476,VALID,109.0,VALID,1.328,
2017-09-07, 01:02:06,VALID,917.143,VALID,0.0,VALID,98.395,VALID,0.002,VALID,18.471,VALID,124.0,VALID,1.724,
2017-09-07, 01:03:06,VALID,917.14,VALID,0.0,VALID,98.425,VALID,0.013,VALID,18.452,VALID,127.0,VALID,1.66,
2017-09-07, 01:04:06,VALID,917.138,VALID,0.0,VALID,98.384,VALID,0.022,VALID,18.396,VALID,125.0,VALID,1.607,
2017-09-07, 01:05:06,VALID,917.122,VALID,0.0,VALID,98.433,VALID,0.017,VALID,18.392,VALID,116.0,VALID,1.693,
2017-09-07, 01:06:06,VALID,917.115,VALID,0.0,VALID,98.547,VALID,0.024,VALID,18.452,VALID,113.0,VALID,1.72,
2017-09-07, 01:07:06,VALID,917.112,VALID,0.0,VALID,98.55,VALID,0.036,VALID,18.423,VALID,97.0,VALID,1.568,
2017-09-07, 01:08:06,VALID,917.115,VALID,0.0,VALID,98.574,VALID,0.03,VALID,18.434,VALID,102.0,VALID,1.755,
2017-09-07, 01:09:06,VALID,917.107,VALID,0.0,VALID,98.578,VALID,0.026,VALID,18.413,VALID,104.0,VALID,1.797,
2017-09-07, 01:10:06,VALID,917.11,VALID,0.0,VALID,98.613,VALID,0.026,VALID,18.434,VALID,107.0,VALID,1.973,
2017-09-07, 01:11:06,VALID,917.091,VALID,0.0,VALID,98.669,VALID,0.005,VALID,18.498,VALID,111.0,VALID,1.992,
2017-09-07, 01:12:06,VALID,917.079,VALID,0.0,VALID,98.706,VALID,0.028,VALID,18.52,VALID,111.0,VALID,2.013,
2017-09-07, 01:13:06,VALID,917.064,VALID,0.0,VALID,98.739,VALID,-0.005,VALID,18.577,VALID,99.0,VALID,1.729,
2017-09-07, 01:14:06,VALID,917.042,VALID,0.0,VALID,98.713,VALID,0.021,VALID,18.555,VALID,110.0,VALID,1.788,
2017-09-07, 01:15:06,VALID,917.015,VALID,0.0,VALID,98.712,VALID,0.034,VALID,18.548,VALID,91.0,VALID,1.505,
2017-09-07, 01:16:06,VALID,916.987,VALID,0.0,VALID,98.694,VALID,0.017,VALID,18.52,VALID,106.0,VALID,1.232,
2017-09-07, 01:17:06,VALID,916.963,VALID,0.0,VALID,98.685,VALID,0.006,VALID,18.486,VALID,114.0,VALID,1.109,
2017-09-07, 01:18:06,VALID,916.932,VALID,0.0,VALID,98.668,VALID,0.007,VALID,18.464,VALID,115.0,VALID,1.033,
2017-09-07, 01:19:06,VALID,916.923,VALID,0.0,VALID,98.694,VALID,0.018,VALID,18.466,VALID,111.0,VALID,1.071,
2017-09-07, 01:20:06,VALID,916.896,VALID,0.0,VALID,98.708,VALID,0.021,VALID,18.458,VALID,111.0,VALID,0.887,
2017-09-07, 01:21:06,VALID,916.887,VALID,0.0,VALID,98.71,VALID,0.015,VALID,18.44,VALID,106.0,VALID,0.811,
2017-09-07, 01:22:06,VALID,916.873,VALID,0.0,VALID,98.711,VALID,0.025,VALID,18.441,VALID,103.0,VALID,0.735,
2017-09-07, 01:23:06,VALID,916.862,VALID,0.0,VALID,98.717,VALID,0.023,VALID,18.443,VALID,103.0,VALID,0.427,
2017-09-07, 01:24:06,VALID,916.85,VALID,0.0,VALID,98.721,VALID,0.02,VALID,18.418,VALID,104.0,VALID,0.613,
2017-09-07, 01:25:06,VALID,916.828,VALID,0.0,VALID,98.726,VALID,0.028,VALID,18.434,VALID,113.0,VALID,0.645,
2017-09-07, 01:26:06,VALID,916.811,VALID,0.0,VALID,98.703,VALID,0.003,VALID,18.404,VALID,128.0,VALID,0.192,
2017-09-07, 01:27:06,VALID,916.798,VALID,0.0,VALID,98.716,VALID,0.003,VALID,18.388,VALID,129.0,VALID,0.009,
2017-09-07, 01:28:06,VALID,916.787,VALID,0.0,VALID,98.705,VALID,0.003,VALID,18.374,VALID,129.0,VALID,0.0,
2017-09-07, 01:29:06,VALID,916.759,VALID,0.0,VALID,98.705,VALID,0.003,VALID,18.361,VALID,129.0,VALID,0.0,
2017-09-07, 01:30:06,VALID,916.763,VALID,0.0,VALID,98.708,VALID,-0.001,VALID,18.342,VALID,129.0,VALID,0.0,
2017-09-07, 01:31:06,VALID,916.759,VALID,0.0,VALID,98.719,VALID,-0.024,VALID,18.362,VALID,99.0,VALID,0.031,
2017-09-07, 01:32:06,VALID,916.759,VALID,0.0,VALID,98.722,VALID,-0.008,VALID,18.355,VALID,39.0,VALID,0.104,
2017-09-07, 01:33:06,VALID,916.771,VALID,0.0,VALID,98.715,VALID,-0.009,VALID,18.362,VALID,52.0,VALID,0.216,
2017-09-07, 01:34:06,VALID,916.782,VALID,0.0,VALID,98.697,VALID,-0.005,VALID,18.368,VALID,56.0,VALID,0.0,
2017-09-07, 01:35:06,VALID,916.781,VALID,0.0,VALID,98.712,VALID,-0.009,VALID,18.352,VALID,115.0,VALID,0.129,
2017-09-07, 01:36:06,VALID,916.777,VALID,0.0,VALID,98.677,VALID,-0.026,VALID,18.34,VALID,155.0,VALID,0.467,
2017-09-07, 01:37:06,VALID,916.773,VALID,0.0,VALID,98.694,VALID,-0.001,VALID,18.346,VALID,120.0,VALID,0.742,
2017-09-07, 01:38:06,VALID,916.767,VALID,0.0,VALID,98.664,VALID,-0.006,VALID,18.337,VALID,90.0,VALID,0.685,
2017-09-07, 01:39:06,VALID,916.743,VALID,0.0,VALID,98.574,VALID,-0.005,VALID,18.239,VALID,81.0,VALID,0.591,
2017-09-07, 01:40:06,VALID,916.721,VALID,0.0,VALID,98.616,VALID,-0.025,VALID,18.278,VALID,80.0,VALID,0.615,
2017-09-07, 01:41:06,VALID,916.704,VALID,0.0,VALID,98.5,VALID,0.002,VALID,18.171,VALID,70.0,VALID,0.592,
2017-09-07, 01:42:06,VALID,916.702,VALID,0.0,VALID,98.453,VALID,0.001,VALID,18.105,VALID,70.0,VALID,0.244,
2017-09-07, 01:43:06,VALID,916.705,VALID,0.0,VALID,98.457,VALID,0.012,VALID,18.085,VALID,15.0,VALID,0.291,
2017-09-07, 01:44:06,VALID,916.704,VALID,0.0,VALID,98.54,VALID,0.01,VALID,18.146,VALID,288.0,VALID,0.757,
2017-09-07, 01:45:06,VALID,916.686,VALID,0.0,VALID,98.639,VALID,-0.001,VALID,18.223,VALID,280.0,VALID,0.264,
2017-09-07, 01:46:06,VALID,916.664,VALID,0.0,VALID,98.644,VALID,0.002,VALID,18.248,VALID,280.0,VALID,0.004,
2017-09-07, 01:47:06,VALID,916.641,VALID,0.0,VALID,98.662,VALID,-0.005,VALID,18.264,VALID,280.0,VALID,0.045,
2017-09-07, 01:48:06,VALID,916.637,VALID,0.0,VALID,98.668,VALID,0.019,VALID,18.262,VALID,280.0,VALID,0.02,
2017-09-07, 01:49:06,VALID,916.641,VALID,0.0,VALID,98.661,VALID,0.005,VALID,18.239,VALID,276.0,VALID,0.319,
2017-09-07, 01:50:06,VALID,916.634,VALID,0.0,VALID,98.727,VALID,0.025,VALID,18.279,VALID,279.0,VALID,0.157,
2017-09-07, 01:51:06,VALID,916.633,VALID,0.0,VALID,98.771,VALID,0.015,VALID,18.351,VALID,279.0,VALID,0.0,
2017-09-07, 01:52:06,VALID,916.638,VALID,0.0,VALID,98.738,VALID,0.0,VALID,18.357,VALID,280.0,VALID,0.0,
2017-09-07, 01:53:06,VALID,916.647,VALID,0.0,VALID,98.737,VALID,-0.01,VALID,18.365,VALID,276.0,VALID,0.274,
2017-09-07, 01:54:06,VALID,916.638,VALID,0.0,VALID,98.75,VALID,0.012,VALID,18.397,VALID,279.0,VALID,0.31,
2017-09-07, 01:55:06,VALID,916.641,VALID,0.0,VALID,98.757,VALID,0.007,VALID,18.404,VALID,287.0,VALID,0.025,
2017-09-07, 01:56:06,VALID,916.65,VALID,0.0,VALID,98.688,VALID,-0.004,VALID,18.316,VALID,50.0,VALID,0.223,
2017-09-07, 01:57:06,VALID,916.661,VALID,0.0,VALID,98.591,VALID,0.004,VALID,18.124,VALID,52.0,VALID,0.012,
2017-09-07, 01:58:06,VALID,916.674,VALID,0.0,VALID,98.452,VALID,-0.006,VALID,17.968,VALID,52.0,VALID,0.0,
2017-09-07, 01:59:06,VALID,916.69,VALID,0.0,VALID,98.419,VALID,0.012,VALID,17.865,VALID,51.0,VALID,0.041,
2017-09-07, 02:00:06,VALID,916.687,VALID,0.0,VALID,98.462,VALID,0.005,VALID,17.862,VALID,38.0,VALID,0.994,
2017-09-07, 02:01:06,VALID,916.69,VALID,0.0,VALID,98.695,VALID,0.011,VALID,18.04,VALID,45.0,VALID,0.636,
2017-09-07, 02:02:06,VALID,916.703,VALID,0.0,VALID,98.731,VALID,0.019,VALID,18.101,VALID,45.0,VALID,0.12,
2017-09-07, 02:03:06,VALID,916.682,VALID,0.0,VALID,98.742,VALID,0.003,VALID,18.108,VALID,44.0,VALID,0.0,
2017-09-07, 02:04:06,VALID,916.669,VALID,0.0,VALID,98.796,VALID,0.0,VALID,18.132,VALID,337.0,VALID,0.059,
2017-09-07, 02:05:06,VALID,916.648,VALID,0.0,VALID,98.782,VALID,-0.01,VALID,18.153,VALID,336.0,VALID,0.001,
2017-09-07, 02:06:06,VALID,916.616,VALID,0.0,VALID,98.769,VALID,-0.003,VALID,18.154,VALID,5.0,VALID,0.03,
2017-09-07, 02:07:06,VALID,916.607,VALID,0.0,VALID,98.759,VALID,0.0,VALID,18.133,VALID,38.0,VALID,0.037,
2017-09-07, 02:08:06,VALID,916.597,VALID,0.0,VALID,98.748,VALID,0.034,VALID,18.099,VALID,74.0,VALID,0.452,
2017-09-07, 02:09:06,VALID,916.602,VALID,0.0,VALID,98.724,VALID,0.027,VALID,18.05,VALID,75.0,VALID,0.539,
2017-09-07, 02:10:06,VALID,916.594,VALID,0.0,VALID,98.719,VALID,0.02,VALID,18.023,VALID,92.0,VALID,0.571,
2017-09-07, 02:11:06,VALID,916.591,VALID,0.0,VALID,98.669,VALID,0.001,VALID,17.958,VALID,100.0,VALID,0.605,
2017-09-07, 02:12:06,VALID,916.608,VALID,0.0,VALID,98.644,VALID,-0.013,VALID,17.88,VALID,104.0,VALID,0.631,
2017-09-07, 02:13:06,VALID,916.59,VALID,0.0,VALID,98.689,VALID,0.0,VALID,17.887,VALID,103.0,VALID,0.61,
2017-09-07, 02:14:06,VALID,916.574,VALID,0.0,VALID,98.69,VALID,0.008,VALID,17.872,VALID,103.0,VALID,0.634,
2017-09-07, 02:15:06,VALID,916.573,VALID,0.0,VALID,98.71,VALID,-0.017,VALID,17.876,VALID,98.0,VALID,0.554,
2017-09-07, 02:16:06,VALID,916.584,VALID,0.0,VALID,98.771,VALID,0.004,VALID,17.916,VALID,90.0,VALID,0.139,
2017-09-07, 02:17:06,VALID,916.593,VALID,0.0,VALID,98.742,VALID,-0.013,VALID,17.911,VALID,163.0,VALID,0.032,
2017-09-07, 02:18:06,VALID,916.575,VALID,0.0,VALID,98.723,VALID,0.0,VALID,17.855,VALID,241.0,VALID,0.0,
2017-09-07, 02:19:06,VALID,916.571,VALID,0.0,VALID,98.754,VALID,-0.028,VALID,17.866,VALID,241.0,VALID,0.0,
2017-09-07, 02:20:06,VALID,916.547,VALID,0.0,VALID,98.802,VALID,-0.013,VALID,17.952,VALID,187.0,VALID,0.0,
2017-09-07, 02:21:06,VALID,916.553,VALID,0.0,VALID,98.851,VALID,-0.004,VALID,18.044,VALID,135.0,VALID,0.0,
2017-09-07, 02:22:06,VALID,916.543,VALID,0.0,VALID,98.902,VALID,-0.012,VALID,18.147,VALID,117.0,VALID,0.0,
2017-09-07, 02:23:06,VALID,916.552,VALID,0.0,VALID,98.874,VALID,-0.021,VALID,18.157,VALID,112.0,VALID,0.0,
2017-09-07, 02:24:06,VALID,916.568,VALID,0.0,VALID,98.813,VALID,-0.003,VALID,18.014,VALID,98.0,VALID,0.0,
2017-09-07, 02:25:06,VALID,916.564,VALID,0.0,VALID,98.686,VALID,-0.006,VALID,17.797,VALID,91.0,VALID,0.0,
2017-09-07, 02:26:06,VALID,916.584,VALID,0.0,VALID,98.674,VALID,-0.007,VALID,17.783,VALID,87.0,VALID,0.0,
2017-09-07, 02:27:06,VALID,916.591,VALID,0.0,VALID,98.784,VALID,-0.005,VALID,17.947,VALID,94.0,VALID,0.0,
2017-09-07, 02:28:06,VALID,916.578,VALID,0.0,VALID,98.779,VALID,0.0,VALID,17.933,VALID,82.0,VALID,0.0,
2017-09-07, 02:29:06,VALID,916.597,VALID,0.0,VALID,98.81,VALID,0.002,VALID,17.95,VALID,82.0,VALID,0.0,
2017-09-07, 02:30:06,VALID,916.606,VALID,0.0,VALID,98.873,VALID,0.003,VALID,18.056,VALID,83.0,VALID,0.162,
2017-09-07, 02:31:06,VALID,916.623,VALID,0.0,VALID,98.884,VALID,-0.01,VALID,18.096,VALID,83.0,VALID,0.936,
2017-09-07, 02:32:06,VALID,916.611,VALID,0.0,VALID,98.862,VALID,0.009,VALID,18.108,VALID,87.0,VALID,0.785,
2017-09-07, 02:33:06,VALID,916.622,VALID,0.0,VALID,98.899,VALID,0.015,VALID,18.169,VALID,104.0,VALID,0.905,
2017-09-07, 02:34:06,VALID,916.619,VALID,0.0,VALID,98.778,VALID,0.003,VALID,18.002,VALID,132.0,VALID,0.754,
2017-09-07, 02:35:06,VALID,916.62,VALID,0.0,VALID,98.743,VALID,0.011,VALID,17.876,VALID,152.0,VALID,0.45,
2017-09-07, 02:36:06,VALID,916.62,VALID,0.0,VALID,98.752,VALID,-0.004,VALID,17.878,VALID,158.0,VALID,0.003,
2017-09-07, 02:37:06,VALID,916.615,VALID,0.0,VALID,98.768,VALID,0.014,VALID,17.882,VALID,158.0,VALID,0.0,
2017-09-07, 02:38:06,VALID,916.616,VALID,0.0,VALID,98.779,VALID,0.004,VALID,17.9,VALID,180.0,VALID,0.158,
2017-09-07, 02:39:06,VALID,916.614,VALID,0.0,VALID,98.853,VALID,0.011,VALID,17.967,VALID,203.0,VALID,0.043,
2017-09-07, 02:40:06,VALID,916.624,VALID,0.0,VALID,98.84,VALID,0.011,VALID,18.0,VALID,169.0,VALID,0.173,
2017-09-07, 02:41:06,VALID,916.639,VALID,0.0,VALID,98.799,VALID,-0.016,VALID,17.937,VALID,144.0,VALID,0.116,
2017-09-07, 02:42:06,VALID,916.652,VALID,0.0,VALID,98.773,VALID,-0.016,VALID,17.841,VALID,134.0,VALID,0.198,
2017-09-07, 02:43:06,VALID,916.648,VALID,0.0,VALID,98.804,VALID,-0.023,VALID,17.912,VALID,118.0,VALID,0.554,
2017-09-07, 02:44:06,VALID,916.653,VALID,0.0,VALID,98.82,VALID,-0.021,VALID,17.97,VALID,112.0,VALID,0.489,
2017-09-07, 02:45:06,VALID,916.662,VALID,0.0,VALID,98.852,VALID,-0.007,VALID,18.002,VALID,122.0,VALID,0.481,
2017-09-07, 02:46:06,VALID,916.665,VALID,0.0,VALID,98.84,VALID,-0.007,VALID,17.959,VALID,131.0,VALID,0.499,
2017-09-07, 02:47:06,VALID,916.668,VALID,0.0,VALID,98.821,VALID,0.005,VALID,17.934,VALID,116.0,VALID,0.526,
2017-09-07, 02:48:06,VALID,916.662,VALID,0.0,VALID,98.806,VALID,0.005,VALID,17.909,VALID,109.0,VALID,0.323,
2017-09-07, 02:49:06,VALID,916.638,VALID,0.0,VALID,98.814,VALID,-0.007,VALID,17.906,VALID,126.0,VALID,0.671,
2017-09-07, 02:50:06,VALID,916.642,VALID,0.0,VALID,98.839,VALID,-0.007,VALID,17.93,VALID,125.0,VALID,0.514,
2017-09-07, 02:51:06,VALID,916.623,VALID,0.0,VALID,98.827,VALID,-0.004,VALID,17.919,VALID,124.0,VALID,0.658,
2017-09-07, 02:52:06,VALID,916.621,VALID,0.0,VALID,98.877,VALID,-0.006,VALID,17.974,VALID,113.0,VALID,0.728,
2017-09-07, 02:53:06,VALID,916.611,VALID,0.0,VALID,98.86,VALID,0.001,VALID,17.969,VALID,110.0,VALID,1.088,
2017-09-07, 02:54:06,VALID,916.59,VALID,0.0,VALID,98.818,VALID,0.001,VALID,17.899,VALID,97.0,VALID,1.158,
2017-09-07, 02:55:06,VALID,916.588,VALID,0.0,VALID,98.829,VALID,0.0,VALID,17.896,VALID,107.0,VALID,1.268,
2017-09-07, 02:56:06,VALID,916.575,VALID,0.0,VALID,98.88,VALID,0.007,VALID,17.946,VALID,112.0,VALID,1.232,
2017-09-07, 02:57:06,VALID,916.573,VALID,0.0,VALID,98.878,VALID,0.024,VALID,17.988,VALID,114.0,VALID,1.401,
2017-09-07, 02:58:06,VALID,916.574,VALID,0.0,VALID,98.912,VALID,0.012,VALID,18.049,VALID,115.0,VALID,1.039,
2017-09-07, 02:59:06,VALID,916.576,VALID,0.0,VALID,98.88,VALID,0.018,VALID,18.007,VALID,130.0,VALID,0.842,
2017-09-07, 03:00:06,VALID,916.586,VALID,0.0,VALID,98.896,VALID,0.024,VALID,18.024,VALID,128.0,VALID,0.785,
2017-09-07, 03:01:06,VALID,916.597,VALID,0.0,VALID,98.916,VALID,0.01,VALID,18.073,VALID,115.0,VALID,0.892,
2017-09-07, 03:02:06,VALID,916.601,VALID,0.0,VALID,98.903,VALID,0.023,VALID,18.103,VALID,110.0,VALID,1.053,
2017-09-07, 03:03:06,VALID,916.603,VALID,0.0,VALID,98.903,VALID,0.009,VALID,18.097,VALID,99.0,VALID,1.369,
2017-09-07, 03:04:06,VALID,916.597,VALID,0.0,VALID,98.891,VALID,0.012,VALID,18.107,VALID,109.0,VALID,1.458,
2017-09-07, 03:05:06,VALID,916.613,VALID,0.0,VALID,98.9,VALID,0.009,VALID,18.099,VALID,112.0,VALID,1.37,
2017-09-07, 03:06:06,VALID,916.622,VALID,0.0,VALID,98.899,VALID,0.023,VALID,18.095,VALID,101.0,VALID,0.656,
2017-09-07, 03:07:06,VALID,916.646,VALID,0.0,VALID,98.872,VALID,0.004,VALID,18.022,VALID,101.0,VALID,0.45,
2017-09-07, 03:08:06,VALID,916.652,VALID,0.0,VALID,98.866,VALID,0.014,VALID,18.053,VALID,102.0,VALID,0.565,
2017-09-07, 03:09:06,VALID,916.651,VALID,0.0,VALID,98.901,VALID,0.005,VALID,18.137,VALID,105.0,VALID,1.068,
2017-09-07, 03:10:06,VALID,916.647,VALID,0.0,VALID,98.919,VALID,0.026,VALID,18.181,VALID,103.0,VALID,1.186,
2017-09-07, 03:11:06,VALID,916.637,VALID,0.0,VALID,98.914,VALID,0.012,VALID,18.202,VALID,98.0,VALID,1.163,
2017-09-07, 03:12:06,VALID,916.648,VALID,0.0,VALID,98.918,VALID,-0.005,VALID,18.242,VALID,100.0,VALID,1.071,
2017-09-07, 03:13:06,VALID,916.65,VALID,0.0,VALID,98.924,VALID,0.016,VALID,18.245,VALID,104.0,VALID,0.897,
2017-09-07, 03:14:06,VALID,916.657,VALID,0.0,VALID,98.883,VALID,-0.007,VALID,18.243,VALID,122.0,VALID,0.865,
2017-09-07, 03:15:06,VALID,916.643,VALID,0.0,VALID,98.863,VALID,-0.004,VALID,18.223,VALID,116.0,VALID,1.105,
2017-09-07, 03:16:06,VALID,916.647,VALID,0.0,VALID,98.84,VALID,-0.01,VALID,18.224,VALID,125.0,VALID,0.525,
2017-09-07, 03:17:06,VALID,916.649,VALID,0.0,VALID,98.841,VALID,-0.006,VALID,18.199,VALID,153.0,VALID,0.398,
2017-09-07, 03:18:06,VALID,916.66,VALID,0.0,VALID,98.812,VALID,-0.007,VALID,18.206,VALID,165.0,VALID,0.467,
2017-09-07, 03:19:06,VALID,916.667,VALID,0.0,VALID,98.838,VALID,-0.011,VALID,18.22,VALID,166.0,VALID,0.538,
2017-09-07, 03:20:06,VALID,916.663,VALID,0.0,VALID,98.84,VALID,-0.006,VALID,18.255,VALID,161.0,VALID,0.655,
2017-09-07, 03:21:06,VALID,916.66,VALID,0.0,VALID,98.863,VALID,0.001,VALID,18.295,VALID,156.0,VALID,0.733,
2017-09-07, 03:22:06,VALID,916.672,VALID,0.0,VALID,98.884,VALID,-0.006,VALID,18.34,VALID,152.0,VALID,0.677,
2017-09-07, 03:23:06,VALID,916.668,VALID,0.0,VALID,98.867,VALID,-0.019,VALID,18.35,VALID,145.0,VALID,0.834,
2017-09-07, 03:24:06,VALID,916.662,VALID,0.0,VALID,98.839,VALID,0.003,VALID,18.335,VALID,140.0,VALID,0.841,
2017-09-07, 03:25:06,VALID,916.658,VALID,0.0,VALID,98.807,VALID,-0.016,VALID,18.295,VALID,131.0,VALID,0.438,
2017-09-07, 03:26:06,VALID,916.66,VALID,0.0,VALID,98.783,VALID,-0.008,VALID,18.211,VALID,128.0,VALID,0.423,
2017-09-07, 03:27:06,VALID,916.655,VALID,0.0,VALID,98.765,VALID,0.004,VALID,18.172,VALID,130.0,VALID,0.652,
2017-09-07, 03:28:06,VALID,916.647,VALID,0.0,VALID,98.772,VALID,-0.006,VALID,18.178,VALID,127.0,VALID,0.791,
2017-09-07, 03:29:06,VALID,916.634,VALID,0.0,VALID,98.754,VALID,-0.02,VALID,18.146,VALID,131.0,VALID,1.038,
2017-09-07, 03:30:06,VALID,916.644,VALID,0.0,VALID,98.773,VALID,0.008,VALID,18.177,VALID,139.0,VALID,1.058,
2017-09-07, 03:31:06,VALID,916.64,VALID,0.0,VALID,98.797,VALID,0.004,VALID,18.209,VALID,140.0,VALID,1.202,
2017-09-07, 03:32:06,VALID,916.637,VALID,0.0,VALID,98.8,VALID,0.001,VALID,18.261,VALID,142.0,VALID,1.195,
2017-09-07, 03:33:06,VALID,916.645,VALID,0.0,VALID,98.816,VALID,0.001,VALID,18.319,VALID,145.0,VALID,0.978,
2017-09-07, 03:34:06,VALID,916.642,VALID,0.0,VALID,98.803,VALID,0.005,VALID,18.325,VALID,151.0,VALID,0.852,
2017-09-07, 03:35:06,VALID,916.642,VALID,0.0,VALID,98.806,VALID,0.027,VALID,18.33,VALID,152.0,VALID,0.409,
2017-09-07, 03:36:06,VALID,916.648,VALID,0.0,VALID,98.735,VALID,0.002,VALID,18.293,VALID,155.0,VALID,0.023,
2017-09-07, 03:37:06,VALID,916.644,VALID,0.0,VALID,98.722,VALID,-0.0,VALID,18.268,VALID,156.0,VALID,0.009,
2017-09-07, 03:38:06,VALID,916.653,VALID,0.0,VALID,98.724,VALID,0.006,VALID,18.27,VALID,149.0,VALID,0.266,
2017-09-07, 03:39:06,VALID,916.657,VALID,0.0,VALID,98.76,VALID,0.015,VALID,18.321,VALID,140.0,VALID,0.279,